AP893 Weather Reports


time (UTC)temp
F
wind
direction
speed
knots
gust
knots
rain 1hr
in
rain 24hr
in
rain mn
in
humidity
%
barometer
mb
20260903205012 77 326 0.9 7.8 0.00 0.04 0.04 35 1017.0
20260903203010 79 290 0.9 7.8 0.00 0.04 0.04 33 1017.1
20260903202011 78 101 0.9 6.1 0.00 0.04 0.04 33 1017.0
20260903201009 78 308 1.7 7.8 0.00 0.04 0.04 34 1017.1
20260903200010 77 143 0.9 7.8 0.00 0.04 0.04 33 1017.1
20260903195010 77 183 0.9 7.0 0.00 0.04 0.04 35 1017.1
20260903194010 77 304 0.9 5.2 0.00 0.04 0.04 34 1017.2
20260903192010 76 187 1.7 10.4 0.00 0.04 0.04 35 1017.4
20260903191010 77 352 4.3 7.8 0.00 0.04 0.04 34 1017.4
20260903190009 78 219 2.6 7.8 0.00 0.04 0.04 34 1017.5
20260903185009 77 5 1.7 5.2 0.00 0.04 0.04 34 1017.7
20260903184009 77 122 2.6 8.7 0.00 0.04 0.04 34 1017.7
20260903183010 76 21 0.0 10.4 0.00 0.04 0.04 35 1017.7
20260903182009 77 28 1.7 6.1 0.00 0.04 0.04 34 1017.5
20260903181010 76 264 2.6 8.7 0.00 0.04 0.04 34 1017.7
20260903180010 76 265 1.7 7.0 0.00 0.04 0.04 34 1017.7
20260903174009 73 21 0.0 6.1 0.00 0.04 0.04 38 1017.7
20260903173010 72 349 4.3 7.8 0.00 0.04 0.04 38 1017.5
20260903172010 71 347 0.0 7.0 0.00 0.04 0.04 41 1017.7
20260903171009 71 356 1.7 7.0 0.00 0.04 0.04 41 1017.8
20260903170010 70 4 0.9 6.1 0.00 0.04 0.04 42 1017.8
20260903165010 70 357 1.7 5.2 0.00 0.04 0.04 43 1017.8
20260903164009 69 140 0.0 0.0 0.00 0.04 0.04 44 1017.7
20260903163010 69 140 0.0 0.0 0.00 0.04 0.04 44 1017.8
20260903162009 68 140 0.0 5.2 0.00 0.04 0.04 45 1017.8
20260903161009 67 100 0.9 5.2 0.00 0.04 0.04 46 1017.9
20260903160010 65 136 0.0 4.3 0.00 0.04 0.04 49 1017.9
20260903155010 63 132 0.9 5.2 0.00 0.04 0.04 53 1018.0
20260903154009 61 133 0.0 4.3 0.00 0.04 0.04 57 1018.0
20260903152009 58 118 0.0 4.3 0.04 0.04 0.04 64 1018.0
20260903151011 57 114 0.9 4.3 0.04 0.04 0.04 67 1017.9
20260903150010 56 76 0.0 0.0 0.04 0.04 0.04 72 1017.8
20260903145009 54 76 0.0 4.3 0.04 0.04 0.04 76 1017.8
20260903144010 53 124 1.7 4.3 0.04 0.04 0.04 81 1017.8
20260903141012 51 130 0.9 2.6 0.00 0.00 0.00 75 1000.3
20260903140010 51 117 4.3 27.8 0.00 0.00 0.00 82 1002.0
20260903135010 50 117 0.0 0.0 0.00 0.00 0.00 83 1017.1
20260903134009 50 117 0.0 0.0 0.00 0.00 0.00 84 1017.1
20260903132009 50 114 0.0 0.0 0.00 0.00 0.00 84 1017.0
20260903130009 50 114 0.0 0.0 0.00 0.00 0.00 84 1017.1
20260903125010 50 114 0.0 0.0 0.00 0.00 0.00 84 1017.1
20260903124009 50 114 0.0 0.0 0.00 0.00 0.00 84 1017.2
20260903123009 50 114 0.0 0.0 0.00 0.00 0.00 84 1017.1
20260903121010 50 114 0.0 4.3 0.00 0.00 0.00 84 1017.2
20260903120009 51 127 0.0 0.0 0.00 0.00 0.00 84 1017.3
20260903115009 51 127 0.0 0.0 0.00 0.00 0.00 83 1017.4
20260903114009 51 127 0.0 0.0 0.00 0.00 0.00 83 1017.4
20260903113009 51 127 0.0 0.0 0.00 0.00 0.00 83 1017.5
20260903112009 51 127 0.0 0.0 0.00 0.00 0.00 84 1017.7
20260903111009 51 127 0.0 6.1 0.00 0.00 0.00 84 1017.7
20260903110009 51 137 0.0 2.6 0.00 0.00 0.00 85 1017.8
20260903105010 51 83 0.0 1.7 0.00 0.00 0.00 85 1017.8
20260903104010 51 78 0.0 0.0 0.00 0.00 0.00 84 1017.8
20260903103010 52 78 0.0 0.0 0.00 0.00 0.00 83 1017.8
20260903102010 52 78 0.0 0.0 0.00 0.00 0.00 82 1017.8
20260903101011 52 78 0.0 0.0 0.00 0.00 0.00 82 1017.8
20260903100009 52 78 0.0 0.0 0.00 0.00 0.00 83 1017.9
20260903095010 52 78 0.0 4.3 0.00 0.00 0.00 84 1017.9
20260903094010 52 143 0.0 0.0 0.00 0.00 0.00 85 1017.9
20260903092010 52 143 0.0 0.0 0.00 0.00 0.00 86 1018.1
20260903091009 52 143 0.0 0.0 0.00 0.00 0.00 85 1018.1
20260903090010 52 143 0.0 0.0 0.00 0.00 0.00 85 1018.2
20260903084010 52 143 0.0 0.0 0.00 0.00 0.00 84 1018.3
20260903083009 52 143 0.0 0.0 0.00 0.00 0.00 84 1018.3
20260903082010 53 143 0.0 0.0 0.00 0.00 0.00 84 1018.3
20260903081010 53 143 0.0 0.0 0.00 0.00 0.00 84 1018.3
20260903080010 53 143 0.0 0.0 0.00 0.00 0.00 82 1018.4
20260903075009 53 143 0.0 0.0 0.00 0.00 0.00 82 1018.3
20260903074010 53 143 0.0 0.0 0.00 0.00 0.00 81 1018.2
20260903073009 54 143 0.0 0.0 0.00 0.00 0.00 80 1018.2
20260903072010 54 143 0.0 0.0 0.00 0.00 0.00 79 1018.3
20260903071010 54 143 0.0 0.0 0.00 0.00 0.00 78 1018.3
20260903070010 55 143 0.0 0.0 0.00 0.00 0.00 77 1018.4
20260903065010 55 143 0.0 0.0 0.00 0.00 0.00 76 1018.4
20260903064010 55 143 0.0 0.0 0.00 0.00 0.00 75 1018.4
20260903060010 56 143 0.9 5.2 0.00 0.00 0.00 73 1018.6
20260903055010 56 277 0.0 0.0 0.00 0.00 0.00 71 1018.6
20260903054010 56 277 0.0 0.0 0.00 0.00 0.00 71 1018.8
20260903053009 57 277 0.0 0.0 0.00 0.00 0.00 69 1018.9
20260903052010 57 277 0.0 0.0 0.00 0.00 0.00 67 1018.9
20260903050009 58 277 0.0 0.0 0.00 0.00 0.00 64 1019.0
20260903045010 59 277 0.0 0.0 0.00 0.00 0.00 63 1019.0
20260903044010 59 277 0.0 0.0 0.00 0.00 0.00 62 1019.0
20260903043010 60 277 0.0 0.0 0.00 0.00 0.00 61 1019.0
20260903042010 61 277 0.0 0.0 0.00 0.00 0.00 59 1019.0
20260903041009 61 277 0.0 0.0 0.00 0.00 0.00 57 1019.0
20260903040009 62 277 0.0 0.0 0.00 0.00 0.00 56 1019.0
20260903035010 62 277 0.0 0.0 0.00 0.00 0.00 53 1018.9
20260903034010 63 277 0.0 0.0 0.00 0.00 0.00 52 1018.9
20260903033009 64 277 0.0 0.0 0.00 0.00 0.00 50 1018.9
20260903032010 65 277 0.0 0.0 0.00 0.00 0.00 48 1018.9
20260903031010 66 277 0.0 0.0 0.00 0.00 0.00 47 1018.8
20260903030010 66 277 0.0 0.0 0.00 0.00 0.00 46 1018.9
20260903025010 67 277 0.0 0.0 0.00 0.00 0.00 45 1019.0
20260903024009 68 277 0.0 0.0 0.00 0.00 0.00 43 1019.1
20260903023010 69 277 0.0 0.0 0.00 0.00 0.00 41 1019.1
20260903022010 69 277 0.0 0.0 0.00 0.00 0.00 40 1019.1
20260903021011 70 277 0.0 1.7 0.00 0.00 0.00 38 1019.0
20260903020009 70 8 0.0 0.0 0.00 0.00 0.00 37 1019.1
20260903015009 71 8 0.0 1.7 0.00 0.00 0.00 36 1019.0
20260903014010 71 8 0.9 4.3 0.00 0.00 0.00 35 1019.0
20260903013010 72 18 0.0 0.0 0.00 0.00 0.00 34 1019.0
20260903011009 73 18 0.9 6.1 0.00 0.00 0.00 32 1019.0
20260903005009 75 254 0.0 5.2 0.00 0.00 0.00 30 1019.2
20260903004009 75 315 0.9 6.1 0.00 0.00 0.00 29 1019.1
20260903003009 75 0 0.0 6.1 0.00 0.00 0.00 30 1019.2
20260903002009 76 285 0.9 6.1 0.00 0.00 0.00 29 1019.2
20260903001010 76 38 0.0 7.0 0.00 0.00 0.00 29 1019.2
20260903000010 76 350 1.7 6.1 0.00 0.00 0.00 29 1019.2
20260902235010 76 268 0.0 5.2 0.00 0.00 0.00 29 1019.3
20260902234009 76 251 1.7 7.8 0.00 0.00 0.00 29 1019.4
20260902233009 76 347 0.9 8.7 0.00 0.00 0.00 29 1019.3
20260902232010 76 299 0.9 8.7 0.00 0.00 0.00 29 1019.3
20260902230009 76 198 2.6 7.0 0.00 0.00 0.00 30 1019.5
20260902225010 75 247 3.5 10.4 0.00 0.00 0.00 29 1019.6
20260902222009 75 38 0.9 6.1 0.00 0.00 0.00 31 1019.7
20260902220010 76 273 2.6 7.8 0.00 0.00 0.00 30 1020.0
20260902215010 76 4 2.6 7.8 0.00 0.00 0.00 29 1020.1
20260902214010 76 216 0.0 6.1 0.00 0.00 0.00 30 1020.2
20260902213010 75 262 2.6 6.1 0.00 0.00 0.00 31 1020.4
20260902211010 75 248 0.9 7.8 0.00 0.00 0.00 32 1020.3